SCP
0 0 0 1 1 1 0 0 0 0 0 0 0 0 0 0 0 0 -0 -0 0 0 0 0 0 0 0 0 0 0 0 0
0 0 0 1 2 2 1 1 0 0 1 0 0 0 0 0 0 0 0 -0 0 0 0 0 0 0 0 0 0 0 0 0
0 0 0 2 3 3 3 1 1 -0 1 0 0 0 0 0 0 0 0 -0 0 0 -0 0 1 0 0 0 0 0 0 0
0 0 0 1 7 13 4 2 1 0 2 1 0 0 0 0 1 1 0 -0 0 1 1 1 0 1 0 1 1 1 1 0
0 0 0 1 6 8 0 -0 1 2 5 2 1 1 1 0 0 2 1 0 -0 1 1 1 1 1 2 1 1 1 1 1
0 0 0 0 2 2 0 3 4 4 5 4 2 2 1 1 1 2 2 2 1 2 1 1 1 3 2 1 1 1 1 1
0 0 0 1 3 8 6 6 4 4 4 5 4 3 2 3 2 3 3 4 3 3 3 2 3 4 3 2 2 2 2 3
0 0 0 1 4 6 5 6 3 3 4 5 3 4 4 4 4 5 7 7 5 3 3 2 4 4 3 3 2 3 2 2
0 -0 0 1 6 6 6 4 4 5 4 4 4 4 4 4 5 6 5 5 4 5 4 3 3 3 4 4 2 1 1 1
0 0 0 1 6 6 5 4 4 5 4 5 4 3 3 4 4 3 3 3 3 4 2 3 4 5 4 3 1 1 1 1
0 0 0 2 4 1 2 2 2 3 3 4 3 4 4 3 3 3 3 2 3 3 3 3 3 3 3 1 1 1 1 1
-0 0 0 1 1 0 0 0 0 2 3 2 3 4 3 2 2 2 3 3 4 3 3 3 3 2 1 1 1 1 1 1
0 0 0 1 2 3 0 1 2 2 2 3 3 2 2 2 2 3 4 3 2 2 3 3 2 2 2 1 1 1 1 1
-0 0 0 0 1 2 2 2 1 1 2 2 1 1 1 3 2 3 2 2 2 3 2 2 2 1 1 1 1 1 1 1
0 0 0 0 0 2 3 1 1 1 1 1 1 3 5 6 3 2 3 3 2 3 3 3 2 2 2 2 2 1 1 1
0 0 0 0 0 3 1 0 1 1 2 2 4 5 4 4 6 4 3 2 2 2 2 2 1 1 1 1 1 1 1 1
0 0 0 2 5 4 1 2 2 2 2 2 3 4 4 2 3 3 2 1 1 1 1 1 1 0 1 1 0 0 1 1
0 1 5 6 4 2 2 2 1 1 2 2 2 2 2 2 1 1 1 1 0 0 0 0 0 0 0 0 0 0 0 0
4 4 4 4 1 2 1 1 1 1 1 0 0 0 0 0 0 0 0 0 0 0 0 0 0 0 0 0 0 0 0 0
3 2 2 1 1 1 1 0 0 0 0 0 0 0 0 0 0 0 0 0 0 0 0 0 0 0 0 0 0 0 0 0
Wind_Speed_500mb
39 45 52 57 57 56 60 59 59 57 49 49 48 42 37 33 29 27 25 21 17 20 23 19 25 29 29 27 27 30 31 31
42 47 50 60 67 66 68 61 58 59 59 39 46 39 39 36 33 31 30 27 25 19 23 24 18 23 22 25 27 20 25 27
48 47 49 64 70 78 79 65 58 64 54 41 43 34 27 21 21 24 29 29 26 22 25 25 29 20 22 27 20 36 32 26
43 48 48 55 81 63 87 69 55 70 47 42 46 43 28 26 30 23 15 24 25 27 22 28 32 21 22 25 25 22 34 37
41 37 53 44 60 84 34 43 52 76 55 46 45 44 38 30 30 35 30 24 28 29 25 23 21 23 31 40 40 37 35 44
48 52 52 59 37 74 96 78 64 71 69 45 48 38 40 32 28 34 35 34 33 32 36 26 26 28 31 35 33 27 28 28
65 60 50 62 43 57 65 61 56 62 77 53 50 40 36 33 30 35 35 36 33 40 33 23 26 38 39 31 31 35 43 44
64 54 56 55 55 53 59 61 52 48 56 51 47 42 43 32 37 36 38 42 40 34 42 35 33 33 37 34 38 47 52 47
69 63 56 61 62 54 52 44 44 48 51 58 56 48 43 42 26 36 43 45 39 36 38 38 39 46 50 54 54 49 39 35
55 59 58 63 60 51 46 49 49 52 48 58 57 44 39 36 36 33 38 42 32 26 27 33 39 47 49 49 40 36 36 22
63 65 62 65 68 59 57 44 44 58 48 54 38 38 32 33 27 24 26 21 22 28 33 37 42 47 46 36 33 28 24 17
65 69 66 52 36 42 55 77 71 62 47 53 48 47 38 29 31 24 22 29 28 24 29 35 33 31 30 32 27 28 30 33
59 72 70 55 44 49 61 63 60 48 49 54 46 36 30 24 26 24 16 19 20 20 23 23 25 26 29 20 18 32 33 37
58 72 72 58 51 53 48 48 47 46 47 48 44 39 34 34 27 16 17 17 13 19 18 18 18 17 19 24 26 28 31 32
57 58 75 64 54 60 57 59 53 46 48 49 47 34 29 38 29 18 21 22 13 20 18 15 16 15 15 23 23 23 24 25
63 68 68 63 62 67 58 51 45 41 45 44 34 44 26 28 31 27 24 17 18 19 19 20 21 23 25 27 24 19 19 30
56 57 63 61 74 62 55 45 38 37 38 39 32 31 33 27 31 24 24 13 8 14 19 23 24 26 29 30 28 22 28 34
56 52 75 74 66 60 51 46 45 41 40 46 48 47 44 34 38 30 25 21 13 7 7 9 12 18 22 28 27 26 32 36
71 74 73 70 59 52 50 47 42 39 41 40 37 35 36 33 30 22 17 11 7 4 7 10 14 17 23 28 32 31 30 38
65 68 68 65 60 56 59 59 57 54 46 44 40 36 32 29 22 15 9 3 5 10 13 17 17 19 27 30 35 38 37 38
Wind_Direction_500mb
189 189 191 184 180 179 183 190 178 169 181 183 188 191 194 197 200 200 201 180 218 201 234 251 257 251 250 253 259 265 268 269
208 202 202 193 185 185 188 189 175 169 193 187 192 196 200 204 207 210 202 179 207 239 215 261 292 297 253 276 277 295 301 304
208 217 210 201 193 186 184 187 176 168 196 192 176 188 199 201 213 231 210 185 206 235 205 235 260 289 276 270 269 263 280 280
214 218 223 219 198 172 177 174 178 171 179 194 170 183 197 187 213 236 241 198 211 233 232 218 229 239 256 261 254 248 260 266
215 225 228 224 215 213 154 208 192 177 175 189 178 181 197 195 200 222 235 228 209 229 235 248 242 255 249 248 250 250 247 249
223 220 227 230 186 192 190 180 193 187 183 178 178 176 186 197 197 222 239 244 220 226 234 232 256 246 254 272 282 287 280 273
225 223 221 225 225 195 179 188 200 199 189 180 174 175 192 201 210 214 235 234 225 231 229 232 250 262 262 268 266 268 258 259
226 223 214 218 223 203 192 185 202 198 192 184 185 190 189 195 214 219 216 226 241 247 242 234 240 252 254 256 258 256 263 273
215 220 211 202 212 210 208 204 197 207 190 189 193 185 199 195 211 220 227 233 239 255 242 237 241 252 255 258 256 265 278 285
215 211 210 201 193 192 193 198 203 210 207 197 203 193 206 206 214 220 238 244 246 245 254 250 250 256 261 260 269 270 276 286
216 210 206 198 189 187 192 200 209 217 208 191 197 189 204 205 208 215 211 200 228 246 254 257 258 262 268 272 273 268 266 286
212 198 195 179 163 181 214 199 210 213 206 180 194 191 190 202 199 189 218 236 224 242 259 268 267 270 274 282 268 251 267 287
204 180 186 193 175 170 181 192 199 207 199 192 192 184 185 180 184 194 231 242 228 228 246 272 274 283 277 269 270 280 283 276
202 171 178 189 181 173 180 187 196 201 193 180 184 179 187 172 175 190 221 225 234 235 249 255 281 283 271 269 271 274 282 280
197 179 170 176 182 169 170 186 179 189 176 172 171 181 169 175 182 199 183 211 231 225 234 236 252 267 275 279 280 286 292 286
189 199 171 171 187 171 178 171 173 178 178 172 170 181 159 174 159 174 182 205 217 221 231 244 245 253 261 260 263 258 271 272
192 192 178 158 139 157 166 168 153 167 176 174 161 157 171 185 169 171 175 199 235 241 256 265 267 267 268 269 276 272 272 282
184 155 126 127 132 139 150 157 159 168 169 163 163 167 165 163 161 166 169 174 198 214 245 268 280 285 285 289 291 283 281 283
113 113 116 129 131 134 136 140 144 148 155 154 148 147 150 155 154 153 155 165 182 253 293 308 308 307 300 292 299 305 294 287
109 114 116 116 117 120 125 126 130 136 136 142 142 149 141 137 135 134 136 163 256 287 287 287 281 278 283 299 300 303 308 301
Wind_Speed_850mb
39 45 52 57 57 56 60 59 59 57 49 49 48 42 37 33 29 27 25 21 17 20 23 19 25 29 29 27 27 30 31 31
42 47 50 60 67 66 68 61 58 59 59 39 46 39 39 36 33 31 30 27 25 19 23 24 18 23 22 25 27 20 25 27
48 47 49 64 70 78 79 65 58 64 54 41 43 34 27 21 21 24 29 29 26 22 25 25 29 20 22 27 20 36 32 26
43 48 48 55 81 63 87 69 55 70 47 42 46 43 28 26 30 23 15 24 25 27 22 28 32 21 22 25 25 22 34 37
41 37 53 44 60 84 34 43 52 76 55 46 45 44 38 30 30 35 30 24 28 29 25 23 21 23 31 40 40 37 35 44
48 52 52 59 37 74 96 78 64 71 69 45 48 38 40 32 28 34 35 34 33 32 36 26 26 28 31 35 33 27 28 28
65 60 50 62 43 57 65 61 56 62 77 53 50 40 36 33 30 35 35 36 33 40 33 23 26 38 39 31 31 35 43 44
64 54 56 55 55 53 59 61 52 48 56 51 47 42 43 32 37 36 38 42 40 34 42 35 33 33 37 34 38 47 52 47
69 63 56 61 62 54 52 44 44 48 51 58 56 48 43 42 26 36 43 45 39 36 38 38 39 46 50 54 54 49 39 35
55 59 58 63 60 51 46 49 49 52 48 58 57 44 39 36 36 33 38 42 32 26 27 33 39 47 49 49 40 36 36 22
63 65 62 65 68 59 57 44 44 58 48 54 38 38 32 33 27 24 26 21 22 28 33 37 42 47 46 36 33 28 24 17
65 69 66 52 36 42 55 77 71 62 47 53 48 47 38 29 31 24 22 29 28 24 29 35 33 31 30 32 27 28 30 33
59 72 70 55 44 49 61 63 60 48 49 54 46 36 30 24 26 24 16 19 20 20 23 23 25 26 29 20 18 32 33 37
58 72 72 58 51 53 48 48 47 46 47 48 44 39 34 34 27 16 17 17 13 19 18 18 18 17 19 24 26 28 31 32
57 58 75 64 54 60 57 59 53 46 48 49 47 34 29 38 29 18 21 22 13 20 18 15 16 15 15 23 23 23 24 25
63 68 68 63 62 67 58 51 45 41 45 44 34 44 26 28 31 27 24 17 18 19 19 20 21 23 25 27 24 19 19 30
56 57 63 61 74 62 55 45 38 37 38 39 32 31 33 27 31 24 24 13 8 14 19 23 24 26 29 30 28 22 28 34
56 52 75 74 66 60 51 46 45 41 40 46 48 47 44 34 38 30 25 21 13 7 7 9 12 18 22 28 27 26 32 36
71 74 73 70 59 52 50 47 42 39 41 40 37 35 36 33 30 22 17 11 7 4 7 10 14 17 23 28 32 31 30 38
65 68 68 65 60 56 59 59 57 54 46 44 40 36 32 29 22 15 9 3 5 10 13 17 17 19 27 30 35 38 37 38
Wind_Direction_850mb
189 189 191 184 180 179 183 190 178 169 181 183 188 191 194 197 200 200 201 180 218 201 234 251 257 251 250 253 259 265 268 269
208 202 202 193 185 185 188 189 175 169 193 187 192 196 200 204 207 210 202 179 207 239 215 261 292 297 253 276 277 295 301 304
208 217 210 201 193 186 184 187 176 168 196 192 176 188 199 201 213 231 210 185 206 235 205 235 260 289 276 270 269 263 280 280
214 218 223 219 198 172 177 174 178 171 179 194 170 183 197 187 213 236 241 198 211 233 232 218 229 239 256 261 254 248 260 266
215 225 228 224 215 213 154 208 192 177 175 189 178 181 197 195 200 222 235 228 209 229 235 248 242 255 249 248 250 250 247 249
223 220 227 230 186 192 190 180 193 187 183 178 178 176 186 197 197 222 239 244 220 226 234 232 256 246 254 272 282 287 280 273
225 223 221 225 225 195 179 188 200 199 189 180 174 175 192 201 210 214 235 234 225 231 229 232 250 262 262 268 266 268 258 259
226 223 214 218 223 203 192 185 202 198 192 184 185 190 189 195 214 219 216 226 241 247 242 234 240 252 254 256 258 256 263 273
215 220 211 202 212 210 208 204 197 207 190 189 193 185 199 195 211 220 227 233 239 255 242 237 241 252 255 258 256 265 278 285
215 211 210 201 193 192 193 198 203 210 207 197 203 193 206 206 214 220 238 244 246 245 254 250 250 256 261 260 269 270 276 286
216 210 206 198 189 187 192 200 209 217 208 191 197 189 204 205 208 215 211 200 228 246 254 257 258 262 268 272 273 268 266 286
212 198 195 179 163 181 214 199 210 213 206 180 194 191 190 202 199 189 218 236 224 242 259 268 267 270 274 282 268 251 267 287
204 180 186 193 175 170 181 192 199 207 199 192 192 184 185 180 184 194 231 242 228 228 246 272 274 283 277 269 270 280 283 276
202 171 178 189 181 173 180 187 196 201 193 180 184 179 187 172 175 190 221 225 234 235 249 255 281 283 271 269 271 274 282 280
197 179 170 176 182 169 170 186 179 189 176 172 171 181 169 175 182 199 183 211 231 225 234 236 252 267 275 279 280 286 292 286
189 199 171 171 187 171 178 171 173 178 178 172 170 181 159 174 159 174 182 205 217 221 231 244 245 253 261 260 263 258 271 272
192 192 178 158 139 157 166 168 153 167 176 174 161 157 171 185 169 171 175 199 235 241 256 265 267 267 268 269 276 272 272 282
184 155 126 127 132 139 150 157 159 168 169 163 163 167 165 163 161 166 169 174 198 214 245 268 280 285 285 289 291 283 281 283
113 113 116 129 131 134 136 140 144 148 155 154 148 147 150 155 154 153 155 165 182 253 293 308 308 307 300 292 299 305 294 287
109 114 116 116 117 120 125 126 130 136 136 142 142 149 141 137 135 134 136 163 256 287 287 287 281 278 283 299 300 303 308 301